Home   Weather   Weymouth   Past weeks
Flag for United Kingdom

Past Weather in Weymouth, England, United Kingdom — Yesterday and Last 2 Weeks

Now
55 °F

Smoke.


Feels Like: 53 °F
Forecast: 61 / 55 °F
Wind: 8 mph from Northwest

Location: Isle Of Portland

Current Time: Oct 24, 2019 at 5:53:37 am

Latest Report: Oct 24, 2019 at 5:00 am


Visibility: 6 mi

Pressure: 29.65 "Hg

Humidity: 89%

Dew Point: 52 °F

Location of WeymouthLocation

Past Weather in Weymouth — Graph

°F

Weymouth Temperature Yesterday

Maximum temperature yesterday: 56 °F (at 1:50 pm)
Minimum temperature yesterday: 52 °F (at 5:00 am)
Average temperature yesterday: 54 °F

High & Low Weather Summary for the Past Weeks

 TemperatureHumidityPressure
High62 °F (Oct 11, 2:00 pm)100% (Oct 13, 12:00 am)30.25 "Hg (Oct 13, 12:00 am)
Low47 °F (Oct 20, 8:00 am)63% (Oct 19, 5:00 pm)29.44 "Hg (Oct 18, 4:00 am)
Average55 °F85%29.77 "Hg
* Reported Oct 9 4:00 am — Oct 24 4:00 am, Weymouth. Weather by CustomWeather, © 2019

Note: Actual official high and low records may vary slightly from our data, if they occured in-between our weather recording intervals... More about our weather records

Advertising

Weymouth Weather History for the Previous 24 Hours

Scroll right to see more
 ConditionsComfort  
Time TempWeatherWind HumidityBarometerVisibility
4:00 am
Thu, Oct 24
55 °FSmoke.6 mph91%29.67 "Hg4 mi
3:00 am55 °FSmoke.6 mph94%29.68 "Hg3 mi
2:00 am54 °FSmoke.7 mph93%29.69 "Hg3 mi
1:00 am54 °FSmoke.6 mph93%29.70 "Hg4 mi
12:00 am55 °FSmoke.5 mph93%29.71 "Hg4 mi
11:00 pm
Wed, Oct 23
54 °FSmoke.10 mph93%29.70 "Hg4 mi
10:00 pm54 °FSmoke.9 mph91%29.74 "Hg4 mi
9:00 pm54 °FSmoke.9 mph92%29.74 "Hg4 mi
8:00 pm55 °FSmoke.9 mph91%29.77 "Hg6 mi
7:00 pm54 °FCool.8 mph94%29.78 "Hg3 mi
6:00 pm55 °FDuststorm.8 mph95%29.78 "Hg1 mi
5:00 pm55 °FRain showers. Cloudy.8 mph94%29.79 "Hg4 mi
4:00 pm55 °FSmoke.8 mph91%29.81 "Hg6 mi
3:00 pm54 °FSmoke.12 mph91%29.83 "Hg6 mi
1:50 pm56 °FCool.13 mph91%29.85 "Hg7 mi
12:00 pm55 °FCool.14 mph95%29.91 "Hg7 mi
11:00 am54 °FCool.14 mph96%29.94 "Hg9 mi
10:00 am53 °FFog.12 mph97%29.96 "Hg6 mi
9:00 am52 °FCool.10 mph95%29.98 "Hg9 mi
8:00 am53 °FCool.10 mph95%29.98 "Hg22 mi
7:00 am54 °FCool.10 mph94%30.00 "Hg19 mi
6:00 am53 °FCool.10 mph95%30.02 "Hg22 mi
5:00 am52 °FCool.8 mph93%30.03 "Hg25 mi
Weather by CustomWeather, © 2019

See weather overview